Terminal Aerodrome Forecast
Issued by NWS Austin/San Antonio, TX

Home | Current Version | Previous Version | Text Only | Print | Product List | Glossary On
Versions: 1 2 3 4 5 6 7 8 9 10 11 12 13 14 15 16 17 18 19 20 21 22 23 24 25
000
FTUS44 KEWX 202300
TAFSAT
TAF
KSAT 202325Z 2100/2206 14016KT P6SM FEW080 FEW250
     FM210800 16010KT P6SM BKN015
     FM211600 17014KT P6SM SCT040
     FM212200 15015G22KT P6SM SCT060
     FM220100 14016KT P6SM SCT070=

USA.gov is the U.S. government's official web portal to all federal, state and local government web resources and services.